Погода в Початках

Чехия     49°15′35″N   15°14′11″E
темп.,
°C
ветер,
м/с
пор.,
м/с
влажн.,
%
обл.,
%
осадки,
мм/ч
давл.,
гПа
погр.,
м
7 марта, вс
вс701:00−3ю11590 0.0 103021
04:00−4ю11630 0.0 102821
07:00−4юз12630 0.0 102721
10:00+1юз34510 0.0 1025371
13:00+4з45450 0.0 1022658
16:00+3зсз354827 0.0 1019721
19:00−1сз116129 0.0 102021
22:00−2зсз126112 0.0 102021
8 марта, пн
пн801:00−3ссз22796 0.0 102023
04:00−4сз379721 0.0 1020262
07:00−3зсз369237 0.0 1020265
10:000зсз468399 0.1 1022564
13:00+2ссз457197 0.2 1022915
16:00+2ссз456498 0.1 10211034
19:00−3св238451 0.1 102332
22:00−3в23787 0.0 102344
9 марта, вт
вт901:00−4юв38733 0.0 1023234
04:00−4юв367023 0.0 1022196
07:00−3юв366661 0.0 1022265
10:00−1юв4657100 0.0 1021422
13:00+1ююв3554100 0.0 1020743
16:00+1ююв2257100 0.0 1019871
19:00−1ю1289100 0.1 102098
22:00−2юз129798 0.7 1021116
10 марта, ср
ср1001:00−2зюз229894 0.9 102180
04:00−1зсз3696100 0.4 1021346
07:00−1зсз359797 0.8 1022347
10:00+1сз469099 0.6 1023573
13:00+2сз458899 1.0 1023556
16:00+2сз247751 0.2 1022651
19:00−1ю129039 0.2 102321
22:00−2ю22931 0.0 102427
11 марта, чт
чт1101:00−2ююв239450 0.0 102260
04:00−1ююв3691100 0.0 1019170
07:000ю3788100 0.1 1018263
10:00+3ююз61385100 0.9 1016633
13:00+6юз91580100 0.9 1014791
16:00+6юз51276100 0.0 1011475
19:00+5ююз51183100 0.0 1011233
22:00+5юз51496100 1.8 1012433